Zurück zum Katalog

JILIN-01-05

AktivWissenschaftSSO
NORAD 43023·PAYLOAD·🇨🇳 China

Gestartet Nov 21, 2017 von Taiyuan Satellite Launch Center

Loading…

Nächste Überflüge (nächste 24 Stunden)

TLE

AktuellSource: Space-Track

Epoche: Sep 14, 2026, 21:57 UTC

1 43023U 17074B   26257.91479498  .00008653  00000-0  25628-3 0  9992
2 43023  97.4911   5.3850 0003509 271.2011  88.8830 15.35113871487769

Verfolge JILIN-01-05 in Echtzeit mit AllMySat

Download on the App Store